Regional Weather Roundup
Issued by NWS

Home | Current Version | Previous Version | Graphics & Text | Print | Product List | Glossary Off
Versions: 1 2 3 4 5 6 7 8 9 10 11 12 13 14 15 16 17 18 19 20 21 22 23 24 25 26 27 28 29 30 31 32 33 34 35 36 37 38 39 40 41 42 43 44 45 46 47 48 49 50

000
ASUS43 KMKX 020311
RWRWI

WISCONSIN REGIONAL WEATHER ROUNDUP
NATIONAL WEATHER SERVICE MILWAUKEE/SULLIVAN WI
1000 PM CDT MON SEP 01 2014

NOTE: "FAIR" INDICATES FEW OR NO CLOUDS BELOW 12,000 FEET WITH NO
SIGNIFICANT WEATHER AND/OR OBSTRUCTIONS TO VISIBILITY.

WIZ001-002-006>008-014>016-023>028-020400-
NORTHWEST WISCONSIN

CITY           SKY/WX    TMP DP  RH WIND       PRES   REMARKS
SUPERIOR ARPT  PTCLDY    55  52  90 CALM      29.75R
ASHLAND        CLEAR     56  53  90 SW7       29.76R
HAYWARD        PTCLDY    56  54  93 CALM      29.79R
SIREN          PTCLDY    58  56  91 CALM      29.80R
RICE LAKE      CLEAR     58  56  93 CALM      29.81S
LADYSMITH      CLEAR     60  55  82 CALM      29.81S
EAU CLAIRE     CLEAR     62  59  90 CALM      29.79S
MENOMONIE      CLEAR     64  57  77 CALM      29.80S
NEW RICHMOND   CLEAR     61  58  91 SW3       29.81S
OSCEOLA        PTCLDY    59  59 100 CALM      29.83R
$$

WIZ003>005-009-010-017-018-020400-
NORTH CENTRAL WISCONSIN

CITY           SKY/WX    TMP DP  RH WIND       PRES   REMARKS
WOODRUFF       CLEAR     60  56  87 CALM      29.79R
RHINELANDER    CLEAR     57  55  93 W5        29.80R
EAGLE RIVER    CLEAR     55  55 100 CALM      29.78R
LAND O LAKES   CLEAR     57  56  95 CALM      29.78R
PHILLIPS       PTCLDY    59  54  84 CALM      29.79R
TOMAHAWK       CLEAR     55  52  90 CALM      29.81R
MEDFORD        CLEAR     59  55  88 CALM      29.81S
MERRILL        CLEAR     58  56  92 W5        29.80R
$$

WIZ029-030-035-036-043>047-020400-
CENTRAL WISCONSIN

CITY           SKY/WX    TMP DP  RH WIND       PRES   REMARKS
WAUSAU         CLEAR     63  56  78 NW6       29.79R
MOSINEE        CLEAR     63  59  88 W7        29.81R
MARSHFIELD     PTCLDY    62  57  83 W6        29.80S
STEVENS POINT  PTCLDY    63  57  81 W3        29.81R
WAUPACA        PTCLDY    66  61  83 W6        29.78S
WAUTOMA        PTCLDY    63  62  96 CALM      29.80R
WISC RAPIDS    PTCLDY    63  59  87 W3        29.81R
CAMP DOUGLAS   PTCLDY    60  60 100 CALM      29.81S
$$

WIZ011>013-019>022-031-037>040-048>050-020400-
NORTHEAST WISCONSIN

CITY           SKY/WX    TMP DP  RH WIND       PRES   REMARKS
ANTIGO         CLEAR     60  56  86 W8        29.80R
STURGEON BAY   CLEAR     66  63  88 W5        29.76S
GREEN BAY      CLEAR     63  60  90 SW5       29.77R
MANITOWOC      CLEAR     67  64  90 W6        29.78R
APPLETON       CLEAR     64  61  88 CALM      29.79R
CLINTONVILLE   CLEAR     63  55  77 W5        29.78R
OSHKOSH        CLEAR     66  63  90 SW3       29.79R
$$

WIZ032>034-041-042-053>061-020400-
SOUTHWEST WISCONSIN

CITY           SKY/WX    TMP DP  RH WIND       PRES   REMARKS
LA CROSSE      PTCLDY    69  59  70 NW3       29.81R
SPARTA         PTCLDY    60  58  96 CALM      29.82S
VIROQUA        FAIR      64  58  81 W6        29.83S
BOSCOBEL       PTCLDY    65  62  90 SW3       29.83R
PRAIRIE DU CHI PTCLDY    64  61  90 E3        29.83R
PLATTEVILLE    FAIR      67  64  88 CALM      29.85S
$$

WIZ056-057-062-063-064-067-068-020400-
SOUTH CENTRAL WISCONSIN

CITY           SKY/WX    TMP DP  RH WIND       PRES   REMARKS
BARABOO/DELLS  CLEAR     62  59  90 S3        29.82R
LONE ROCK      PTCLDY    66  61  84 CALM      29.83R
WATERTOWN      CLEAR     63  63 100 CALM      29.81S
MADISON        PTCLDY    66  60  81 CALM      29.82R
MIDDLETON      FAIR      64  62  94 CALM      29.83R
MONROE         PTCLDY    68  63  83 W9        29.84R
JANESVILLE     CLEAR     66  64  94 S3        29.83R
$$

WIZ051-052-058>065-066-070>072-020400-
SOUTHEAST WISCONSIN

CITY           SKY/WX    TMP DP  RH WIND       PRES   REMARKS
MILWAUKEE      PTCLDY    70  65  84 SW5       29.81R
WAUKESHA       CLEAR     64  59  82 W6        29.83S
MILWAUKEE/TIMM CLEAR     68  59  73 W3        29.82R
RACINE         CLEAR     69  66  90 W6        29.83R
BURLINGTON     CLEAR     64  62  96 CALM      29.83R
KENOSHA        CLEAR     68  65  90 W7        29.82R
FOND DU LAC    CLEAR     64  61  90 SW6       29.81R
SHEBOYGAN      CLEAR     63  60  90 SW6       29.79R
WEST BEND      CLEAR     64  59  82 W5        29.81S
JUNEAU         CLEAR     62  62  97 CALM      29.83R
$$

LSZ147-162-020400-
LAKE SUPERIOR

STATION/POSITION TIME  TEMP    WIND        PRES    WAVE
                       AIR SEA DIR/SP/G            HT/PER
                 (UTC) (F)     (DEG/KT/KT) (MB)    (FT/S)
W MID LAKE BUOY  0250   60 57  240/  8/ 10 1005.2R   1/ 4
DEVILS ISLAND    0300   64     270/ 13/ 15 1006.4R
PORT WING        0200   63     190/  7/  8 1007.1R
SAXON HARBOR     0200   61     200/  5/  7 1007.1R
$$

LMZ867-665-643>646-020400-
LAKE MICHIGAN

STATION/POSITION TIME  TEMP    WIND        PRES    WAVE
                       AIR SEA DIR/SP/G            HT/PER
                 (UTC) (F)     (DEG/KT/KT) (MB)    (FT/S)
N MID LAKE BUOY  0250   66 64  240/  4/  6 1006.7R   2/ 6
NORTHPORT PIER   0200   67     310/  3/  3 1006.4R
KEWAUNEE LAKESHO 0200   70     260/  4/  7 1006.7R
SHEBOYGAN LAKESH 0300   67 53  240/  8/  9 1008.8R
ATWATER BUOY     0300   66     280/  6/  8 1010.3R
MILWAUKEE LAKESH 0200   73     290/  6/  8   N/A
S MID LAKE BUOY  0250   71 70  250/  8/ 10 1009.3R   2/ 3
KENOSHA   LAKESH 0300   72     270/  8/ 10 1009.5R
$$

TC  - TEMPERATURE IN CELSIUS
VSB - VISIBILITY IN STATUTE MILES
WCI - WIND CHILL INDEX
HX  - HEAT INDEX



USA.gov is the U.S. government's official web portal to all federal, state and local government web resources and services.